AAL290 KLAX-KMIA

Flight info

Callsign AAL290
Flight time 3h 32m
Altitude 36000
Route DOTSS2 CNERY BLH SALOM EWM CRGER IAH J86 LEV BACCA Y290 GAWKS FROGZ4
Aircraft 739/M-SDE3GHIJ2J3J5M1RVWXYZ/LB1

Departure

Time 2026-04-26 05:05
Airport Los Angeles International Airport (KLAX)

Arrival

Time 2026-04-26 08:37
Airport Miami International Airport (KMIA)
Time Latitude Longitude Altitude Speed Heading
2026-04-26 04:50 33.93963 -118.40604 123 ft 0 kts 322°
2026-04-26 04:53 33.93952 -118.40595 123 ft 3 kts 322°
2026-04-26 04:54 33.93937 -118.40580 123 ft 2 kts 324°
2026-04-26 04:54 33.93926 -118.40572 123 ft 1 kts 338°
2026-04-26 04:54 33.93916 -118.40569 123 ft 1 kts 356°
2026-04-26 04:54 33.93908 -118.40569 123 ft 1 kts 12°
2026-04-26 04:55 33.93899 -118.40572 123 ft 1 kts 28°
2026-04-26 04:55 33.93894 -118.40576 123 ft 0 kts 40°
2026-04-26 04:58 33.93900 -118.40563 123 ft 5 kts 65°
2026-04-26 04:58 33.93901 -118.40559 123 ft 0 kts 68°
2026-04-26 04:59 33.93909 -118.40514 123 ft 10 kts 79°
2026-04-26 04:59 33.93921 -118.40408 121 ft 13 kts 84°
2026-04-26 04:59 33.93902 -118.40305 120 ft 13 kts 147°
2026-04-26 04:59 33.93854 -118.40264 120 ft 7 kts 98°
2026-04-26 05:00 33.93858 -118.40205 120 ft 6 kts 84°
2026-04-26 05:00 33.93864 -118.40144 119 ft 8 kts 84°
2026-04-26 05:00 33.93873 -118.40055 117 ft 13 kts 83°
2026-04-26 05:00 33.93886 -118.39937 115 ft 20 kts 82°
2026-04-26 05:01 33.93905 -118.39750 111 ft 24 kts 83°
2026-04-26 05:01 33.93926 -118.39539 110 ft 25 kts 83°
2026-04-26 05:01 33.93949 -118.39317 107 ft 28 kts 83°
2026-04-26 05:01 33.93971 -118.39105 105 ft 26 kts 83°
2026-04-26 05:02 33.93992 -118.38899 103 ft 24 kts 83°
2026-04-26 05:02 33.94010 -118.38711 103 ft 12 kts 84°
2026-04-26 05:02 33.94021 -118.38604 103 ft 12 kts 83°
2026-04-26 05:02 33.94033 -118.38495 103 ft 13 kts 83°
2026-04-26 05:03 33.94044 -118.38377 101 ft 13 kts 94°
2026-04-26 05:03 33.94012 -118.38337 100 ft 6 kts 171°
2026-04-26 05:03 33.93970 -118.38339 100 ft 5 kts 195°
2026-04-26 05:03 33.93949 -118.38369 101 ft 4 kts 263°
2026-04-26 05:04 33.93947 -118.38390 101 ft 0 kts 263°
2026-04-26 05:04 33.93946 -118.38397 101 ft 3 kts 263°
2026-04-26 05:04 33.93936 -118.38494 103 ft 37 kts 263°
2026-04-26 05:04 33.93871 -118.39123 106 ft 109 kts 263°
2026-04-26 05:05 33.93753 -118.40299 120 ft 167 kts 263°
2026-04-26 05:05 33.93597 -118.41821 458 ft 189 kts 263°
2026-04-26 05:05 33.93433 -118.43393 1132 ft 191 kts 263°
2026-04-26 05:05 33.93266 -118.44999 1897 ft 196 kts 263°
2026-04-26 05:06 33.92726 -118.46470 2611 ft 203 kts 232°
2026-04-26 05:06 33.91844 -118.47827 3373 ft 212 kts 234°
2026-04-26 05:06 33.90949 -118.49205 4441 ft 208 kts 233°
2026-04-26 05:06 33.90443 -118.49931 5059 ft 204 kts 233°
2026-04-26 05:07 33.89935 -118.50661 5617 ft 204 kts 233°
2026-04-26 05:07 33.89024 -118.51968 6470 ft 208 kts 233°
2026-04-26 05:07 33.88099 -118.53294 7358 ft 210 kts 233°
2026-04-26 05:07 33.87163 -118.54630 8250 ft 211 kts 233°
2026-04-26 05:08 33.86138 -118.55888 9036 ft 218 kts 210°
2026-04-26 05:08 33.84622 -118.56204 9682 ft 238 kts 171°
2026-04-26 05:08 33.83042 -118.55688 10575 ft 236 kts 173°
2026-04-26 05:08 33.81424 -118.55244 11200 ft 245 kts 174°
2026-04-26 05:09 33.80799 -118.55075 11398 ft 250 kts 174°
2026-04-26 05:09 33.79904 -118.54834 11669 ft 258 kts 174°
2026-04-26 05:09 33.78121 -118.54353 12184 ft 272 kts 174°
2026-04-26 05:10 33.76228 -118.53840 12706 ft 286 kts 174°
2026-04-26 05:10 33.74222 -118.53300 13229 ft 301 kts 174°
2026-04-26 05:10 33.72149 -118.52741 13726 ft 315 kts 173°
2026-04-26 05:10 33.70092 -118.51595 14104 ft 349 kts 145°
2026-04-26 05:11 33.68502 -118.49230 14472 ft 380 kts 119°
2026-04-26 05:11 33.67789 -118.46082 14982 ft 399 kts 103°
2026-04-26 05:11 33.67005 -118.42951 15886 ft 395 kts 112°
2026-04-26 05:11 33.66091 -118.39818 16541 ft 403 kts 112°
2026-04-26 05:12 33.65390 -118.36544 17130 ft 414 kts 105°
2026-04-26 05:12 33.64727 -118.33200 17945 ft 415 kts 101°
2026-04-26 05:12 33.64511 -118.29720 18519 ft 426 kts 90°
2026-04-26 05:12 33.64690 -118.26136 19208 ft 429 kts 91°
2026-04-26 05:13 33.64708 -118.22552 19885 ft 433 kts 92°
2026-04-26 05:13 33.64693 -118.18982 20359 ft 432 kts 92°
2026-04-26 05:13 33.64673 -118.15385 20654 ft 437 kts 92°
2026-04-26 05:13 33.64652 -118.11709 20943 ft 443 kts 93°
2026-04-26 05:14 33.64626 -118.07993 21193 ft 446 kts 92°
2026-04-26 05:14 33.64605 -118.04282 21396 ft 448 kts 93°
2026-04-26 05:14 33.64577 -118.00547 21599 ft 448 kts 93°
2026-04-26 05:14 33.64551 -117.96796 21798 ft 450 kts 93°
2026-04-26 05:15 33.64521 -117.93054 22006 ft 452 kts 93°
2026-04-26 05:15 33.64495 -117.89294 22209 ft 452 kts 94°
2026-04-26 05:15 33.64462 -117.85535 22411 ft 455 kts 93°
2026-04-26 05:15 33.64420 -117.81712 22621 ft 456 kts 96°
2026-04-26 05:16 33.64005 -117.78007 22813 ft 451 kts 108°
2026-04-26 05:16 33.63155 -117.74400 23036 ft 450 kts 111°
2026-04-26 05:16 33.62261 -117.70784 23242 ft 454 kts 111°
2026-04-26 05:16 33.61378 -117.67196 23442 ft 456 kts 112°
2026-04-26 05:17 33.60472 -117.63528 23656 ft 457 kts 112°
2026-04-26 05:17 33.59571 -117.59874 23857 ft 458 kts 112°
2026-04-26 05:17 33.58670 -117.56241 24056 ft 460 kts 112°
2026-04-26 05:17 33.57758 -117.52547 24263 ft 462 kts 112°
2026-04-26 05:18 33.56840 -117.48851 24470 ft 464 kts 112°
2026-04-26 05:18 33.55923 -117.45139 24669 ft 466 kts 112°
2026-04-26 05:18 33.54992 -117.41399 24883 ft 467 kts 112°
2026-04-26 05:18 33.54067 -117.37695 25084 ft 470 kts 112°
2026-04-26 05:19 33.53132 -117.33931 25287 ft 472 kts 114°
2026-04-26 05:19 33.52187 -117.30166 25480 ft 474 kts 113°
2026-04-26 05:19 33.51248 -117.26408 25659 ft 475 kts 113°
2026-04-26 05:19 33.50561 -117.22487 25840 ft 486 kts 103°
2026-04-26 05:20 33.50386 -117.18439 26042 ft 493 kts 95°
2026-04-26 05:20 33.50359 -117.14352 26240 ft 494 kts 96°
2026-04-26 05:20 33.50309 -117.10220 26424 ft 497 kts 96°
2026-04-26 05:20 33.50253 -117.06097 26619 ft 502 kts 96°
2026-04-26 05:21 33.50196 -117.01836 26811 ft 504 kts 96°
2026-04-26 05:21 33.50137 -116.97549 27013 ft 506 kts 96°
2026-04-26 05:21 33.50075 -116.93355 27218 ft 506 kts 96°
2026-04-26 05:21 33.50010 -116.89124 27466 ft 506 kts 96°
2026-04-26 05:22 33.49947 -116.84929 27716 ft 509 kts 96°
2026-04-26 05:22 33.49883 -116.80664 27974 ft 513 kts 96°
2026-04-26 05:22 33.49810 -116.76326 28233 ft 518 kts 96°
2026-04-26 05:22 33.49742 -116.71989 28488 ft 519 kts 97°
2026-04-26 05:23 33.49663 -116.67676 28743 ft 520 kts 96°
2026-04-26 05:23 33.49591 -116.63322 29008 ft 524 kts 96°
2026-04-26 05:23 33.49519 -116.58976 29269 ft 523 kts 97°
2026-04-26 05:23 33.49443 -116.54579 29533 ft 527 kts 97°
2026-04-26 05:24 33.49363 -116.50166 29796 ft 528 kts 97°
2026-04-26 05:24 33.49279 -116.45782 30043 ft 529 kts 97°
2026-04-26 05:24 33.49201 -116.41363 30293 ft 530 kts 97°
2026-04-26 05:24 33.49137 -116.36970 30718 ft 528 kts 97°
2026-04-26 05:25 33.49077 -116.32701 31579 ft 514 kts 97°
2026-04-26 05:25 33.49021 -116.28473 32196 ft 507 kts 98°
2026-04-26 05:25 33.48949 -116.24252 32299 ft 512 kts 98°
2026-04-26 05:25 33.48877 -116.19994 32489 ft 515 kts 98°
2026-04-26 05:26 33.48803 -116.15692 32677 ft 517 kts 97°
2026-04-26 05:26 33.48740 -116.11361 32971 ft 517 kts 97°
2026-04-26 05:26 33.48705 -116.07149 33463 ft 513 kts 94°
2026-04-26 05:26 33.49067 -116.02868 33704 ft 520 kts 84°
2026-04-26 05:27 33.49928 -115.98627 33842 ft 527 kts 73°
2026-04-26 05:27 33.51182 -115.94535 34087 ft 527 kts 73°
2026-04-26 05:27 33.52422 -115.90379 34411 ft 525 kts 72°
2026-04-26 05:27 33.53618 -115.86294 34559 ft 527 kts 73°
2026-04-26 05:28 33.54834 -115.82161 34773 ft 526 kts 73°
2026-04-26 05:28 33.56034 -115.78028 34818 ft 530 kts 73°
2026-04-26 05:28 33.57249 -115.73851 34711 ft 534 kts 73°
2026-04-26 05:28 33.58481 -115.69624 34833 ft 537 kts 73°
2026-04-26 05:29 33.60935 -115.61128 34841 ft 546 kts 73°
2026-04-26 05:29 33.63242 -115.52439 34844 ft 542 kts 83°
2026-04-26 05:30 33.63720 -115.43675 34848 ft 524 kts 102°
2026-04-26 05:30 33.63170 -115.39406 34838 ft 513 kts 113°
2026-04-26 05:30 33.62102 -115.35380 34854 ft 508 kts 118°
2026-04-26 05:31 33.60795 -115.26942 34842 ft 530 kts 98°
2026-04-26 05:31 33.60634 -115.18128 34810 ft 528 kts 98°
2026-04-26 05:32 33.60433 -115.09354 34813 ft 528 kts 98°
2026-04-26 05:32 33.60225 -115.00590 34811 ft 529 kts 98°
2026-04-26 05:33 33.60006 -114.91775 34796 ft 530 kts 98°
2026-04-26 05:33 33.59782 -114.83003 34801 ft 529 kts 98°
2026-04-26 05:34 33.59569 -114.74195 34800 ft 530 kts 98°
2026-04-26 05:34 33.58700 -114.65541 34795 ft 524 kts 104°
2026-04-26 05:35 33.57898 -114.56820 34804 ft 525 kts 104°
2026-04-26 05:35 33.57109 -114.48117 34805 ft 526 kts 104°
2026-04-26 05:36 33.56323 -114.39452 34807 ft 521 kts 104°
2026-04-26 05:36 33.55541 -114.30860 34791 ft 515 kts 104°
2026-04-26 05:37 33.54749 -114.22284 34801 ft 520 kts 104°
2026-04-26 05:37 33.53951 -114.13705 34822 ft 522 kts 104°
2026-04-26 05:38 33.53148 -114.05120 34815 ft 518 kts 104°
2026-04-26 05:38 33.52338 -113.96476 34834 ft 519 kts 104°
2026-04-26 05:39 33.51479 -113.87891 34823 ft 516 kts 109°
2026-04-26 05:39 33.50005 -113.79514 34838 ft 514 kts 110°
2026-04-26 05:40 33.48548 -113.71111 34826 ft 515 kts 110°
2026-04-26 05:40 33.47092 -113.62703 34844 ft 514 kts 110°
2026-04-26 05:41 33.45632 -113.54345 34837 ft 511 kts 110°
2026-04-26 05:41 33.44164 -113.45966 34838 ft 513 kts 110°
2026-04-26 05:42 33.42690 -113.37599 34841 ft 519 kts 110°
2026-04-26 05:42 33.41199 -113.29144 34821 ft 520 kts 111°
2026-04-26 05:43 33.39708 -113.20718 34814 ft 518 kts 111°
2026-04-26 05:43 33.38200 -113.12279 34816 ft 521 kts 110°
2026-04-26 05:44 33.36691 -113.03816 34812 ft 521 kts 111°
2026-04-26 05:44 33.35173 -112.95364 34809 ft 520 kts 111°
2026-04-26 05:45 33.33654 -112.86951 34814 ft 520 kts 110°
2026-04-26 05:45 33.32120 -112.78483 34819 ft 523 kts 110°
2026-04-26 05:46 33.30583 -112.70010 34819 ft 521 kts 110°
2026-04-26 05:46 33.29039 -112.61572 34826 ft 521 kts 110°
2026-04-26 05:47 33.27497 -112.53149 34835 ft 520 kts 110°
2026-04-26 05:47 33.25939 -112.44686 34852 ft 522 kts 110°
2026-04-26 05:48 33.24380 -112.36254 34869 ft 523 kts 110°
2026-04-26 05:48 33.22818 -112.27808 34873 ft 522 kts 111°
2026-04-26 05:49 33.20463 -112.15179 34872 ft 519 kts 111°
2026-04-26 05:50 33.18890 -112.06802 34856 ft 521 kts 110°
2026-04-26 05:50 33.17300 -111.98358 34831 ft 524 kts 110°
2026-04-26 05:50 33.16501 -111.94117 34988 ft 523 kts 110°
2026-04-26 05:51 33.15702 -111.89881 34804 ft 522 kts 110°
2026-04-26 05:51 33.14111 -111.81474 34856 ft 521 kts 110°
2026-04-26 05:52 33.12505 -111.73041 34860 ft 524 kts 110°
2026-04-26 05:52 33.10888 -111.64587 34864 ft 521 kts 110°
2026-04-26 05:53 33.09289 -111.56236 34873 ft 520 kts 110°
2026-04-26 05:53 33.07658 -111.47781 34866 ft 523 kts 110°
2026-04-26 05:54 33.06043 -111.39392 34884 ft 522 kts 110°
2026-04-26 05:54 33.04395 -111.30927 34872 ft 524 kts 110°
2026-04-26 05:55 33.02755 -111.22493 34884 ft 524 kts 110°
2026-04-26 05:55 33.01112 -111.14075 34916 ft 522 kts 111°
2026-04-26 05:56 32.99453 -111.05648 34917 ft 522 kts 110°
2026-04-26 05:56 32.97804 -110.97274 34925 ft 524 kts 110°
2026-04-26 05:57 32.96140 -110.88867 34929 ft 523 kts 110°
2026-04-26 05:57 32.94470 -110.80452 34942 ft 522 kts 111°
2026-04-26 05:58 32.92801 -110.72055 34948 ft 522 kts 111°
2026-04-26 05:58 32.91117 -110.63638 34946 ft 522 kts 110°
2026-04-26 05:59 32.89436 -110.55260 35138 ft 523 kts 111°
2026-04-26 05:59 32.88585 -110.51041 35016 ft 523 kts 110°
2026-04-26 05:59 32.87735 -110.46835 34977 ft 523 kts 110°
2026-04-26 06:00 32.86043 -110.38463 34987 ft 521 kts 110°
2026-04-26 06:00 32.84351 -110.30133 34978 ft 521 kts 111°
2026-04-26 06:01 32.82648 -110.21774 34995 ft 521 kts 111°
2026-04-26 06:01 32.80947 -110.13438 34991 ft 520 kts 111°
2026-04-26 06:02 32.79224 -110.05046 35029 ft 523 kts 111°
2026-04-26 06:02 32.77506 -109.96681 35058 ft 520 kts 111°
2026-04-26 06:03 32.75793 -109.88403 35035 ft 520 kts 111°
2026-04-26 06:03 32.74049 -109.80022 35005 ft 525 kts 111°
2026-04-26 06:04 32.72309 -109.71637 34981 ft 521 kts 111°
2026-04-26 06:04 32.70566 -109.63288 35011 ft 522 kts 111°
2026-04-26 06:05 32.68816 -109.54961 34999 ft 522 kts 111°
2026-04-26 06:05 32.67057 -109.46603 35009 ft 524 kts 111°
2026-04-26 06:06 32.65287 -109.38210 35035 ft 524 kts 111°
2026-04-26 06:06 32.63521 -109.29868 35028 ft 524 kts 111°
2026-04-26 06:07 32.61737 -109.21471 35038 ft 522 kts 111°
2026-04-26 06:07 32.59948 -109.13115 35037 ft 524 kts 111°
2026-04-26 06:08 32.58147 -109.04685 35049 ft 525 kts 111°
2026-04-26 06:08 32.56346 -108.96311 35065 ft 524 kts 111°
2026-04-26 06:09 32.54534 -108.87918 35067 ft 524 kts 111°
2026-04-26 06:09 32.52731 -108.79577 35076 ft 524 kts 111°
2026-04-26 06:10 32.50921 -108.71216 35072 ft 523 kts 111°
2026-04-26 06:10 32.49090 -108.62849 35086 ft 526 kts 111°
2026-04-26 06:11 32.47240 -108.54376 35101 ft 524 kts 111°
2026-04-26 06:11 32.45407 -108.46001 35114 ft 523 kts 111°
2026-04-26 06:12 32.43562 -108.37654 35108 ft 524 kts 110°
2026-04-26 06:12 32.41737 -108.29347 35081 ft 521 kts 111°
2026-04-26 06:13 32.39888 -108.21014 35083 ft 521 kts 111°
2026-04-26 06:13 32.38048 -108.12746 35071 ft 523 kts 111°
2026-04-26 06:14 32.36201 -108.04456 35075 ft 521 kts 111°
2026-04-26 06:14 32.34343 -107.96176 35071 ft 522 kts 111°
2026-04-26 06:15 32.32471 -107.87839 35063 ft 522 kts 111°
2026-04-26 06:15 32.30605 -107.79570 35049 ft 522 kts 111°
2026-04-26 06:16 32.28737 -107.71285 35035 ft 521 kts 111°
2026-04-26 06:16 32.26850 -107.62997 35028 ft 523 kts 111°
2026-04-26 06:17 32.24966 -107.54689 35038 ft 521 kts 111°
2026-04-26 06:17 32.23084 -107.46459 35043 ft 522 kts 111°
2026-04-26 06:18 32.21179 -107.38139 35045 ft 522 kts 111°
2026-04-26 06:18 32.19293 -107.29928 35026 ft 520 kts 112°
2026-04-26 06:19 32.17391 -107.21695 35037 ft 521 kts 112°
2026-04-26 06:19 32.15482 -107.13425 35042 ft 523 kts 112°
2026-04-26 06:20 32.13552 -107.05136 35037 ft 523 kts 111°
2026-04-26 06:20 32.11631 -106.96875 35043 ft 523 kts 111°
2026-04-26 06:21 32.09705 -106.88628 35040 ft 524 kts 111°
2026-04-26 06:21 32.07762 -106.80329 35041 ft 523 kts 111°
2026-04-26 06:22 32.05820 -106.72073 35035 ft 524 kts 111°
2026-04-26 06:22 32.03860 -106.63754 35050 ft 523 kts 111°
2026-04-26 06:23 32.01910 -106.55521 35037 ft 524 kts 111°
2026-04-26 06:23 31.99944 -106.47245 35053 ft 526 kts 111°
2026-04-26 06:24 31.97968 -106.38944 35046 ft 526 kts 111°
2026-04-26 06:24 31.95999 -106.30692 35021 ft 524 kts 112°
2026-04-26 06:25 31.94343 -106.22304 35036 ft 530 kts 104°
2026-04-26 06:25 31.93064 -106.13759 35018 ft 530 kts 105°
2026-04-26 06:26 31.91722 -106.05259 35047 ft 530 kts 105°
2026-04-26 06:26 31.90383 -105.96749 35067 ft 529 kts 105°
2026-04-26 06:27 31.89025 -105.88236 35077 ft 530 kts 105°
2026-04-26 06:27 31.87664 -105.79700 35077 ft 531 kts 105°
2026-04-26 06:28 31.86308 -105.71223 35076 ft 531 kts 105°
2026-04-26 06:28 31.84925 -105.62646 35083 ft 532 kts 105°
2026-04-26 06:29 31.83551 -105.54132 35084 ft 530 kts 105°
2026-04-26 06:29 31.82169 -105.45618 35084 ft 530 kts 105°
2026-04-26 06:30 31.80777 -105.37126 35074 ft 531 kts 105°
2026-04-26 06:30 31.79379 -105.28584 35045 ft 531 kts 105°
2026-04-26 06:31 31.77975 -105.20048 35036 ft 531 kts 105°
2026-04-26 06:31 31.76569 -105.11542 35034 ft 533 kts 105°
2026-04-26 06:32 31.75150 -105.02967 35026 ft 533 kts 105°
2026-04-26 06:32 31.73725 -104.94445 35030 ft 527 kts 105°
2026-04-26 06:33 31.72324 -104.86084 35059 ft 515 kts 105°
2026-04-26 06:33 31.70950 -104.77917 35066 ft 513 kts 105°
2026-04-26 06:34 31.69570 -104.69712 35045 ft 501 kts 105°
2026-04-26 06:34 31.68901 -104.65781 35008 ft 486 kts 105°
2026-04-26 06:34 31.68241 -104.61888 35053 ft 482 kts 105°
2026-04-26 06:35 31.66921 -104.54137 35050 ft 491 kts 105°
2026-04-26 06:35 31.65574 -104.46244 35036 ft 494 kts 105°
2026-04-26 06:36 31.64222 -104.38377 35031 ft 490 kts 105°
2026-04-26 06:36 31.62867 -104.30499 34996 ft 491 kts 105°
2026-04-26 06:37 31.61508 -104.22639 34984 ft 492 kts 105°
2026-04-26 06:37 31.60155 -104.14812 34965 ft 489 kts 106°
2026-04-26 06:38 31.58807 -104.07089 34934 ft 470 kts 105°
2026-04-26 06:38 31.58168 -104.03384 34922 ft 453 kts 106°
2026-04-26 06:38 31.57534 -103.99791 34956 ft 449 kts 106°
2026-04-26 06:39 31.56264 -103.92564 34964 ft 458 kts 105°
2026-04-26 06:39 31.54952 -103.85134 34961 ft 468 kts 105°
2026-04-26 06:40 31.53643 -103.77682 34956 ft 464 kts 105°
2026-04-26 06:40 31.52332 -103.70317 34948 ft 461 kts 105°
2026-04-26 06:41 31.51025 -103.62946 34937 ft 462 kts 105°
2026-04-26 06:41 31.49713 -103.55579 34890 ft 454 kts 105°
2026-04-26 06:41 31.49069 -103.51998 34846 ft 435 kts 106°
2026-04-26 06:42 31.48464 -103.48618 34838 ft 420 kts 106°
2026-04-26 06:42 31.47265 -103.41963 34902 ft 418 kts 106°
2026-04-26 06:43 31.46050 -103.35240 34931 ft 425 kts 105°
2026-04-26 06:43 31.44817 -103.28407 34920 ft 432 kts 106°
2026-04-26 06:44 31.43572 -103.21540 34896 ft 432 kts 106°
2026-04-26 06:44 31.42323 -103.14690 34918 ft 432 kts 106°
2026-04-26 06:45 31.41052 -103.07724 34911 ft 440 kts 106°
2026-04-26 06:45 31.39758 -103.00653 34911 ft 448 kts 106°
2026-04-26 06:46 31.38433 -102.93448 34928 ft 458 kts 106°
2026-04-26 06:46 31.37305 -102.87315 34913 ft 467 kts 106°
2026-04-26 06:47 31.35682 -102.78550 34918 ft 480 kts 106°
2026-04-26 06:47 31.34245 -102.70825 34910 ft 492 kts 105°
2026-04-26 06:48 31.32766 -102.62878 34921 ft 504 kts 105°
2026-04-26 06:48 31.31247 -102.54754 34927 ft 517 kts 105°
2026-04-26 06:49 31.29688 -102.46459 34919 ft 531 kts 105°
2026-04-26 06:49 31.28081 -102.37923 34910 ft 542 kts 105°
2026-04-26 06:50 31.26454 -102.29311 34895 ft 540 kts 105°
2026-04-26 06:50 31.24823 -102.20726 34904 ft 536 kts 105°
2026-04-26 06:51 31.23207 -102.12243 34897 ft 536 kts 105°
2026-04-26 06:51 31.20767 -101.99487 34902 ft 537 kts 105°
2026-04-26 06:52 31.19118 -101.90932 34895 ft 538 kts 105°
2026-04-26 06:52 31.17753 -101.83865 34902 ft 537 kts 105°
2026-04-26 06:53 31.15838 -101.73975 34912 ft 536 kts 105°
2026-04-26 06:53 31.14178 -101.65455 34916 ft 534 kts 105°
2026-04-26 06:54 31.12531 -101.57024 34914 ft 534 kts 105°
2026-04-26 06:54 31.10871 -101.48569 34910 ft 534 kts 105°
2026-04-26 06:55 31.09483 -101.41493 34909 ft 533 kts 105°
2026-04-26 06:55 31.07540 -101.31651 34897 ft 534 kts 105°
2026-04-26 06:56 31.05871 -101.23235 34900 ft 532 kts 105°
2026-04-26 06:56 31.04204 -101.14861 34897 ft 532 kts 105°
2026-04-26 06:57 31.02519 -101.06420 34904 ft 533 kts 105°
2026-04-26 06:57 31.00837 -100.98010 34895 ft 531 kts 105°
2026-04-26 06:58 30.99055 -100.89168 34886 ft 532 kts 105°
2026-04-26 06:58 30.90353 -100.46351 34876 ft 530 kts 105°
2026-04-26 06:59 30.88925 -100.39399 34877 ft 528 kts 105°
2026-04-26 06:59 30.86924 -100.29691 34869 ft 528 kts 105°
2026-04-26 07:00 30.85193 -100.21337 34871 ft 529 kts 105°
2026-04-26 07:00 30.83466 -100.13032 34873 ft 530 kts 105°
2026-04-26 07:01 30.81739 -100.04703 34870 ft 528 kts 105°
2026-04-26 07:01 30.80005 -99.96437 34872 ft 528 kts 105°
2026-04-26 07:02 30.78556 -99.89532 34877 ft 527 kts 105°
2026-04-26 07:02 30.76811 -99.81222 34875 ft 528 kts 105°
2026-04-26 07:03 30.74760 -99.71514 34864 ft 528 kts 105°
2026-04-26 07:03 30.73309 -99.64655 34862 ft 527 kts 105°
2026-04-26 07:04 30.71247 -99.54984 34852 ft 528 kts 104°
2026-04-26 07:04 30.69785 -99.48113 34848 ft 527 kts 105°
2026-04-26 07:05 30.67718 -99.38458 34846 ft 527 kts 104°
2026-04-26 07:05 30.66249 -99.31594 34830 ft 527 kts 105°
2026-04-26 07:06 30.64464 -99.23317 34828 ft 527 kts 105°
2026-04-26 07:06 30.62672 -99.15035 34821 ft 528 kts 105°
2026-04-26 07:07 30.60880 -99.06760 34822 ft 528 kts 105°
2026-04-26 07:07 30.59094 -98.98547 34821 ft 528 kts 105°
2026-04-26 07:08 30.57275 -98.90217 34824 ft 529 kts 105°
2026-04-26 07:08 30.55166 -98.80573 34815 ft 528 kts 105°
2026-04-26 07:09 30.53651 -98.73695 34817 ft 529 kts 105°
2026-04-26 07:09 30.51530 -98.64054 34810 ft 527 kts 105°
2026-04-26 07:11 30.47270 -98.44846 34821 ft 527 kts 104°
2026-04-26 07:11 30.45433 -98.36607 34828 ft 526 kts 104°
2026-04-26 07:12 30.43779 -98.26937 34804 ft 526 kts 99°
2026-04-26 07:12 30.42510 -98.18548 34801 ft 527 kts 100°
2026-04-26 07:13 30.41449 -98.11616 34814 ft 526 kts 100°
2026-04-26 07:13 30.40161 -98.03262 34822 ft 526 kts 99°
2026-04-26 07:14 30.38863 -97.94880 34817 ft 525 kts 100°
2026-04-26 07:14 30.37567 -97.86554 34823 ft 525 kts 99°
2026-04-26 07:15 30.36267 -97.78231 34814 ft 526 kts 100°
2026-04-26 07:15 30.34946 -97.69831 34811 ft 524 kts 99°
2026-04-26 07:16 30.33414 -97.60103 34810 ft 525 kts 99°
2026-04-26 07:16 30.32317 -97.53183 34809 ft 525 kts 99°
2026-04-26 07:17 30.30989 -97.44823 34809 ft 526 kts 99°
2026-04-26 07:17 30.29663 -97.36537 34808 ft 524 kts 99°
2026-04-26 07:18 30.28111 -97.26843 34785 ft 524 kts 100°
2026-04-26 07:18 30.26990 -97.19894 34787 ft 525 kts 100°
2026-04-26 07:19 30.25651 -97.11621 34798 ft 524 kts 100°
2026-04-26 07:19 30.24300 -97.03289 34813 ft 524 kts 100°
2026-04-26 07:20 30.22950 -96.95010 34814 ft 525 kts 100°
2026-04-26 07:20 30.21586 -96.86684 34812 ft 524 kts 100°
2026-04-26 07:21 30.20226 -96.78400 34808 ft 524 kts 100°
2026-04-26 07:21 30.18864 -96.70153 34802 ft 524 kts 100°
2026-04-26 07:22 30.17925 -96.64484 34793 ft 526 kts 100°
2026-04-26 07:22 30.16546 -96.56187 34799 ft 524 kts 100°
2026-04-26 07:23 30.15163 -96.47894 34808 ft 525 kts 100°
2026-04-26 07:23 30.13770 -96.39599 34813 ft 525 kts 100°
2026-04-26 07:24 30.12373 -96.31301 34797 ft 525 kts 100°
2026-04-26 07:24 30.10978 -96.23038 34806 ft 525 kts 100°
2026-04-26 07:25 30.09567 -96.14717 34806 ft 526 kts 100°
2026-04-26 07:25 30.08156 -96.06423 34807 ft 525 kts 100°
2026-04-26 07:26 30.06742 -95.98143 34809 ft 527 kts 100°
2026-04-26 07:26 30.05321 -95.89860 34810 ft 525 kts 100°
2026-04-26 07:27 30.03899 -95.81609 34813 ft 526 kts 100°
2026-04-26 07:27 30.02199 -95.71781 34815 ft 527 kts 100°
2026-04-26 07:28 29.94511 -95.25461 34813 ft 526 kts 96°
2026-04-26 07:29 29.93435 -95.17087 34823 ft 527 kts 97°
2026-04-26 07:29 29.92348 -95.08749 34829 ft 526 kts 97°
2026-04-26 07:30 29.91259 -95.00397 34830 ft 527 kts 96°
2026-04-26 07:30 29.90169 -94.92072 34830 ft 528 kts 96°
2026-04-26 07:31 29.89057 -94.83688 34824 ft 526 kts 96°
2026-04-26 07:31 29.87954 -94.75358 34824 ft 525 kts 96°
2026-04-26 07:32 29.86850 -94.67075 34819 ft 529 kts 96°
2026-04-26 07:32 29.85715 -94.58598 34821 ft 536 kts 96°
2026-04-26 07:33 29.84572 -94.50110 34828 ft 539 kts 96°
2026-04-26 07:33 29.83420 -94.41586 34840 ft 537 kts 96°
2026-04-26 07:34 29.82265 -94.33085 34833 ft 538 kts 96°
2026-04-26 07:34 29.81101 -94.24585 34831 ft 537 kts 96°
2026-04-26 07:35 29.79944 -94.16151 34834 ft 537 kts 96°
2026-04-26 07:35 29.78772 -94.07655 34836 ft 538 kts 96°
2026-04-26 07:36 29.77594 -93.99190 34834 ft 538 kts 96°
2026-04-26 07:36 29.74469 -93.76894 34832 ft 539 kts 96°
2026-04-26 07:37 29.69645 -93.42918 34848 ft 539 kts 96°
2026-04-26 07:37 29.64720 -93.08902 34832 ft 538 kts 96°
2026-04-26 07:38 29.59683 -92.74798 34845 ft 539 kts 96°
2026-04-26 07:38 29.54599 -92.40949 34886 ft 540 kts 96°
2026-04-26 07:39 29.44306 -91.74246 34900 ft 539 kts 96°
2026-04-26 07:39 29.33478 -91.06413 34886 ft 541 kts 96°
2026-04-26 07:40 29.22305 -90.38724 34948 ft 539 kts 96°
2026-04-26 07:40 29.15986 -90.03439 34903 ft 542 kts 111°
2026-04-26 07:41 29.12939 -89.95550 34921 ft 542 kts 108°
2026-04-26 07:41 29.10378 -89.87477 34900 ft 542 kts 107°
2026-04-26 07:42 29.07839 -89.79368 34896 ft 541 kts 107°
2026-04-26 07:42 29.05308 -89.71296 34902 ft 542 kts 107°
2026-04-26 07:43 29.02758 -89.63192 34901 ft 541 kts 107°
2026-04-26 07:43 29.00215 -89.55122 34902 ft 541 kts 107°
2026-04-26 07:44 28.97676 -89.47079 34896 ft 541 kts 107°
2026-04-26 07:44 28.95111 -89.38974 34894 ft 541 kts 107°
2026-04-26 07:45 28.92554 -89.30925 34877 ft 539 kts 108°
2026-04-26 07:45 28.90000 -89.22894 34883 ft 540 kts 108°
2026-04-26 07:46 28.87441 -89.14872 34885 ft 538 kts 108°
2026-04-26 07:46 28.84872 -89.06842 34881 ft 538 kts 108°
2026-04-26 07:47 28.82321 -88.98871 34884 ft 537 kts 108°
2026-04-26 07:47 28.79756 -88.90886 34886 ft 538 kts 108°
2026-04-26 07:48 28.77180 -88.82887 34882 ft 537 kts 108°
2026-04-26 07:48 28.74604 -88.74902 34889 ft 538 kts 108°
2026-04-26 07:49 28.72029 -88.66941 34890 ft 537 kts 108°
2026-04-26 07:49 28.69459 -88.59008 34889 ft 536 kts 108°
2026-04-26 07:50 28.65583 -88.47085 34887 ft 535 kts 108°
2026-04-26 07:50 28.62999 -88.39160 34891 ft 534 kts 108°
2026-04-26 07:51 28.60422 -88.31281 34875 ft 533 kts 108°
2026-04-26 07:51 28.57840 -88.23390 34880 ft 533 kts 108°
2026-04-26 07:52 28.55237 -88.15460 34885 ft 532 kts 108°
2026-04-26 07:52 28.52661 -88.07634 34892 ft 531 kts 108°
2026-04-26 07:53 28.50075 -87.99784 34905 ft 532 kts 108°
2026-04-26 07:53 28.47463 -87.91884 34906 ft 531 kts 108°
2026-04-26 07:54 28.44866 -87.84038 34908 ft 532 kts 108°
2026-04-26 07:54 28.42252 -87.76164 34909 ft 531 kts 108°
2026-04-26 07:55 28.39645 -87.68324 34908 ft 530 kts 108°
2026-04-26 07:55 28.37043 -87.60523 34911 ft 529 kts 108°
2026-04-26 07:56 28.31155 -87.42939 34960 ft 528 kts 108°
2026-04-26 07:56 28.10292 -86.81237 34960 ft 524 kts 109°
2026-04-26 07:57 27.99471 -86.49680 34902 ft 522 kts 109°
2026-04-26 07:57 27.97481 -86.43910 34904 ft 491 kts 109°
2026-04-26 07:58 27.94997 -86.36703 34928 ft 498 kts 109°
2026-04-26 07:58 27.92432 -86.29290 34915 ft 515 kts 109°
2026-04-26 07:59 27.89789 -86.21653 34904 ft 526 kts 109°
2026-04-26 07:59 27.87114 -86.13961 34901 ft 524 kts 109°
2026-04-26 08:00 27.84470 -86.06363 34899 ft 521 kts 109°
2026-04-26 08:00 27.76161 -85.82589 34921 ft 522 kts 109°
2026-04-26 08:01 27.57299 -85.29045 34924 ft 525 kts 107°
2026-04-26 08:01 27.55735 -85.21069 34896 ft 519 kts 91°
2026-04-26 08:02 27.55254 -85.12989 34928 ft 520 kts 94°
2026-04-26 08:02 27.54032 -85.04971 34900 ft 521 kts 98°
2026-04-26 08:03 27.52633 -84.96935 34903 ft 521 kts 98°
2026-04-26 08:03 27.51227 -84.88940 34911 ft 520 kts 98°
2026-04-26 08:04 27.49812 -84.80949 34900 ft 520 kts 98°
2026-04-26 08:04 27.41816 -84.36221 34922 ft 518 kts 98°
2026-04-26 08:05 27.41094 -84.32255 34894 ft 506 kts 98°
2026-04-26 08:05 27.40402 -84.28451 34893 ft 490 kts 98°
2026-04-26 08:05 27.38722 -84.19205 34921 ft 491 kts 98°
2026-04-26 08:06 27.24855 -83.44126 35045 ft 496 kts 98°
2026-04-26 08:06 27.17954 -83.07674 34905 ft 493 kts 98°
2026-04-26 08:07 27.16506 -83.00146 34913 ft 494 kts 99°
2026-04-26 08:07 27.15070 -82.92664 34905 ft 492 kts 99°
2026-04-26 08:08 27.13556 -82.85184 34901 ft 494 kts 106°
2026-04-26 08:08 27.12153 -82.81632 34934 ft 497 kts 120°
2026-04-26 08:08 27.10313 -82.78358 34916 ft 498 kts 121°
2026-04-26 08:09 27.06671 -82.71784 34910 ft 496 kts 121°
2026-04-26 08:09 27.03054 -82.65206 34913 ft 495 kts 121°
2026-04-26 08:10 26.99448 -82.58655 34701 ft 485 kts 121°
2026-04-26 08:10 26.97702 -82.55492 34457 ft 479 kts 121°
2026-04-26 08:10 26.95952 -82.52319 34215 ft 482 kts 121°
2026-04-26 08:11 26.94180 -82.49107 33966 ft 481 kts 121°
2026-04-26 08:11 26.92420 -82.45945 33919 ft 475 kts 124°
2026-04-26 08:11 26.90309 -82.43158 33896 ft 475 kts 138°
2026-04-26 08:11 26.87811 -82.40719 33644 ft 478 kts 140°
2026-04-26 08:12 26.85285 -82.38290 33384 ft 478 kts 140°
2026-04-26 08:12 26.82765 -82.35872 33128 ft 477 kts 140°
2026-04-26 08:12 26.80250 -82.33458 32868 ft 476 kts 141°
2026-04-26 08:12 26.77737 -82.31051 32599 ft 477 kts 141°
2026-04-26 08:13 26.75193 -82.28613 32333 ft 478 kts 141°
2026-04-26 08:13 26.72669 -82.26196 32074 ft 477 kts 141°
2026-04-26 08:13 26.70142 -82.23781 31812 ft 479 kts 141°
2026-04-26 08:13 26.67639 -82.21385 31554 ft 478 kts 141°
2026-04-26 08:14 26.65101 -82.18961 31290 ft 479 kts 141°
2026-04-26 08:14 26.62569 -82.16545 31034 ft 479 kts 141°
2026-04-26 08:14 26.60015 -82.14106 30774 ft 478 kts 141°
2026-04-26 08:14 26.57501 -82.11708 30510 ft 479 kts 141°
2026-04-26 08:15 26.54949 -82.09277 30259 ft 479 kts 140°
2026-04-26 08:15 26.52443 -82.06870 30003 ft 480 kts 139°
2026-04-26 08:15 26.49954 -82.04350 29746 ft 480 kts 139°
2026-04-26 08:15 26.47490 -82.01864 29241 ft 485 kts 139°
2026-04-26 08:16 26.44960 -81.99317 28609 ft 486 kts 139°
2026-04-26 08:16 26.42473 -81.96811 27993 ft 484 kts 139°
2026-04-26 08:16 26.39995 -81.94320 27376 ft 477 kts 139°
2026-04-26 08:16 26.37582 -81.91891 26730 ft 460 kts 139°
2026-04-26 08:17 26.35206 -81.89505 26207 ft 456 kts 139°
2026-04-26 08:17 26.32876 -81.87167 25662 ft 455 kts 138°
2026-04-26 08:17 26.30505 -81.84787 25093 ft 453 kts 138°
2026-04-26 08:17 26.28177 -81.82450 24528 ft 449 kts 138°
2026-04-26 08:18 26.25883 -81.80152 23974 ft 444 kts 138°
2026-04-26 08:18 26.23817 -81.77655 23426 ft 440 kts 124°
2026-04-26 08:18 26.22305 -81.74699 22896 ft 435 kts 114°
2026-04-26 08:18 26.20989 -81.71690 22360 ft 433 kts 114°
2026-04-26 08:19 26.19681 -81.68688 21808 ft 428 kts 114°
2026-04-26 08:19 26.18407 -81.65758 21260 ft 423 kts 114°
2026-04-26 08:19 26.17121 -81.62804 20699 ft 418 kts 114°
2026-04-26 08:19 26.15874 -81.59938 20158 ft 414 kts 114°
2026-04-26 08:20 26.14613 -81.57048 19610 ft 410 kts 114°
2026-04-26 08:20 26.13387 -81.54234 19072 ft 406 kts 114°
2026-04-26 08:20 26.12150 -81.51399 18534 ft 403 kts 113°
2026-04-26 08:20 26.10950 -81.48648 18005 ft 399 kts 114°
2026-04-26 08:21 26.09751 -81.45903 17483 ft 394 kts 114°
2026-04-26 08:21 26.08561 -81.43180 16967 ft 391 kts 114°
2026-04-26 08:21 26.07372 -81.40461 16457 ft 389 kts 114°
2026-04-26 08:21 26.06196 -81.37763 15936 ft 386 kts 114°
2026-04-26 08:22 26.05034 -81.35091 15422 ft 383 kts 114°
2026-04-26 08:22 26.03887 -81.32457 14907 ft 380 kts 114°
2026-04-26 08:22 26.02734 -81.29816 14397 ft 377 kts 114°
2026-04-26 08:22 26.01592 -81.27197 13915 ft 375 kts 114°
2026-04-26 08:23 26.00473 -81.24630 13425 ft 371 kts 114°
2026-04-26 08:23 25.99349 -81.22060 12941 ft 369 kts 114°
2026-04-26 08:23 25.98243 -81.19525 12459 ft 365 kts 115°
2026-04-26 08:23 25.97134 -81.16988 11980 ft 360 kts 115°
2026-04-26 08:24 25.96050 -81.14510 11500 ft 356 kts 115°
2026-04-26 08:24 25.94986 -81.12078 11044 ft 351 kts 115°
2026-04-26 08:24 25.93920 -81.09647 10836 ft 344 kts 115°
2026-04-26 08:24 25.92876 -81.07270 10683 ft 335 kts 115°
2026-04-26 08:25 25.91882 -81.05004 10628 ft 318 kts 115°
2026-04-26 08:25 25.90971 -81.02856 10545 ft 304 kts 111°
2026-04-26 08:25 25.90172 -81.00745 10471 ft 290 kts 111°
2026-04-26 08:25 25.89406 -80.98737 10395 ft 277 kts 111°
2026-04-26 08:26 25.88662 -80.96793 10297 ft 264 kts 111°
2026-04-26 08:26 25.87966 -80.94974 10206 ft 253 kts 112°
2026-04-26 08:26 25.87276 -80.93169 9954 ft 252 kts 112°
2026-04-26 08:26 25.86588 -80.91378 9748 ft 254 kts 112°
2026-04-26 08:27 25.85898 -80.89582 9516 ft 251 kts 112°
2026-04-26 08:27 25.85223 -80.87822 9294 ft 249 kts 112°
2026-04-26 08:27 25.84539 -80.86041 9071 ft 247 kts 112°
2026-04-26 08:27 25.83864 -80.84290 8790 ft 248 kts 112°
2026-04-26 08:28 25.83186 -80.82526 8471 ft 249 kts 112°
2026-04-26 08:28 25.82515 -80.80780 8148 ft 249 kts 113°
2026-04-26 08:28 25.81833 -80.79008 7775 ft 248 kts 113°
2026-04-26 08:28 25.81162 -80.77265 7457 ft 242 kts 113°
2026-04-26 08:29 25.80514 -80.75582 7135 ft 236 kts 113°
2026-04-26 08:29 25.79873 -80.73921 6830 ft 231 kts 113°
2026-04-26 08:29 25.79362 -80.72258 6649 ft 232 kts 102°
2026-04-26 08:29 25.79066 -80.70482 6475 ft 234 kts 98°
2026-04-26 08:30 25.78888 -80.68694 6292 ft 231 kts 95°
2026-04-26 08:30 25.78794 -80.66938 6103 ft 229 kts 92°
2026-04-26 08:30 25.78758 -80.65182 5878 ft 227 kts 90°
2026-04-26 08:30 25.78761 -80.63443 5643 ft 225 kts 89°
2026-04-26 08:31 25.78790 -80.61717 5394 ft 224 kts 89°
2026-04-26 08:31 25.78835 -80.60004 5137 ft 220 kts 88°
2026-04-26 08:31 25.78890 -80.58350 4865 ft 211 kts 88°
2026-04-26 08:31 25.78949 -80.56747 4646 ft 206 kts 88°
2026-04-26 08:32 25.79011 -80.55190 4390 ft 201 kts 87°
2026-04-26 08:32 25.79075 -80.53655 4123 ft 197 kts 87°
2026-04-26 08:32 25.79139 -80.52138 3866 ft 193 kts 88°
2026-04-26 08:32 25.79202 -80.50687 3612 ft 188 kts 88°
2026-04-26 08:33 25.79264 -80.49244 3354 ft 184 kts 88°
2026-04-26 08:33 25.79323 -80.47852 3106 ft 180 kts 88°
2026-04-26 08:33 25.79382 -80.46466 2860 ft 176 kts 89°
2026-04-26 08:33 25.79439 -80.45144 2611 ft 167 kts 89°
2026-04-26 08:34 25.79492 -80.43909 2390 ft 155 kts 89°
2026-04-26 08:34 25.79541 -80.42729 2224 ft 155 kts 89°
2026-04-26 08:34 25.79592 -80.41509 2022 ft 159 kts 89°
2026-04-26 08:34 25.79642 -80.40305 1803 ft 157 kts 89°
2026-04-26 08:35 25.79694 -80.39099 1604 ft 153 kts 89°
2026-04-26 08:35 25.79744 -80.37921 1409 ft 154 kts 89°
2026-04-26 08:35 25.79794 -80.36725 1191 ft 152 kts 89°
2026-04-26 08:35 25.79843 -80.35574 975 ft 149 kts 88°
2026-04-26 08:36 25.79890 -80.34421 776 ft 148 kts 89°
2026-04-26 08:36 25.79942 -80.33275 573 ft 148 kts 88°
2026-04-26 08:36 25.79988 -80.32143 380 ft 147 kts 88°
2026-04-26 08:36 25.80034 -80.31020 209 ft 147 kts 88°
2026-04-26 08:37 25.80080 -80.29871 54 ft 148 kts 88°
2026-04-26 08:37 25.80124 -80.28786 12 ft 123 kts 86°
2026-04-26 08:37 25.80151 -80.28181 11 ft 21 kts 86°
2026-04-26 08:37 25.80136 -80.28031 11 ft 20 kts 106°
2026-04-26 08:38 25.80044 -80.27916 11 ft 21 kts 141°
2026-04-26 08:38 25.79968 -80.27959 11 ft 15 kts 254°
2026-04-26 08:38 25.79892 -80.28024 11 ft 13 kts 220°
2026-04-26 08:38 25.79826 -80.28087 11 ft 5 kts 221°
2026-04-26 08:39 25.79822 -80.28091 11 ft 0 kts 221°